User: anonymous   Login
Location: Unspecified
(0.0000°N, 0.0000°E)
Time: 08:19:20
(UTC+00:00)
Language:

BEEAGLESAT - Orbit

View from above orbital plane
View from above orbital plane
View from above satellite
View from above satellite

Ground track
Ground track

The orbit data is extracted from the following two-line orbital elements,

1 42736U 98067MR  18267.39750767 +.00049120 +00000-0 +34759-3 0  9997
2 42736 051.6323 211.4715 0003053 227.9740 132.0999 15.73475673076023
Epoch (UTC): 24 September 2018 09:32:24
Eccentricity: 0.0003053
inclination: 51.6323°
perigee height: 347 km
apogee height: 351 km
right ascension of ascending node: 211.4715°
argument of perigee: 227.9740°
revolutions per day: 15.73475673
mean anomaly at epoch: 132.0999°
orbit number at epoch: 7602

The dashed part of the orbit path shows where the satellite is in the earth's shadow,  

DLR